Regional Weather Roundup
Issued by NWS

Home | Current Version | Previous Version | Text Only | Print | Product List | Glossary Off
Versions: 1 2 3 4 5 6 7 8 9 10 11 12 13 14 15 16 17 18 19 20 21 22 23 24 25 26 27 28 29 30 31 32 33 34 35 36 37 38 39 40 41 42 43 44 45 46 47 48 49 50

372
ASUS44 KLIX 250401
RWRLA
LOUISIANA WEATHER ROUNDUP
NATIONAL WEATHER SERVICE NEW ORLEANS LA
1100 PM CDT THU JUL 24 2014

NOTE: "FAIR" INDICATES FEW OR NO CLOUDS BELOW 12,000 FEET WITH NO
      SIGNIFICANT WEATHER AND/OR OBSTRUCTIONS TO VISIBILITY.
      SKY/WX - SKY CONDITION AND SIGNIFICANT WEATHER.
      TMP - AIR TEMPERATURE.    DP   - DEWPOINT TEMPERATURE.
      RH  - RELATIVE HUMIDITY.  PRES - PRESSURE.
      HX  - HEAT INDEX.         WCI  - WIND CHILL INDEX.

*  THESE STATIONS ARE NOT NWS OR FAA STATIONS AND ARE NOT UNDER
   NWS QUALITY CONTROL.

LAZ040-048-061>063-065-066-069-250500-
SOUTHEAST LOUISIANA

CITY           SKY/WX    TMP DP  RH WIND       PRES   REMARKS
N.O. AUDUBON     N/A     82  76  83 MISG        N/A
N.O. INTL ARPT PTCLDY    79  73  82 SW6       29.99R
N.O. LAKEFRONT CLEAR     82  74  76 SW7       29.99R
N.O. DOWNTOWN* FAIR      82  72  69 SW3       30.00R
SLIDELL        CLEAR     77  74  90 CALM      29.99R
BATON ROUGE    CLEAR     77  74  90 CALM      29.99R
BOOTHVILLE     PTCLDY    81  74  79 SW6       30.00R
BELLE CHASSE   MOCLDY    77  73  87 W3        29.98R
BOGALUSA*      FAIR      79  75  86 CALM      30.00S
GALLIANO*      NOT AVBL
NEW ROADS*     FAIR      78  76  94 CALM      29.99R FOG
GONZALES*      FAIR      77  76  97 CALM      29.98S
HAMMOND*       CLEAR     75  72  88 N5        30.02R FOG
HOUMA*         CLEAR     75  71  88 CALM      29.99S FOG
PORT FOURCHON* CLOUDY    82  77  83 SW8       30.02R

$$

LAZ041-044-053-054-250500-
SOUTHWEST LOUISIANA

CITY           SKY/WX    TMP DP  RH WIND       PRES   REMARKS
LAKE CHARLES   CLEAR     80  77  90 CALM      29.99R FOG
LAFAYETTE      CLEAR     79  76  90 SW5       29.99R
PATTERSON      CLEAR     75  73  94 W5        30.03R
SALT POINT       N/A     83  78  85 CALM      29.98S
NEW IBERIA     CLEAR     78  75  90 CALM      30.00R
CHENAULT AIRPK CLEAR     79  75  88 CALM      30.00R

$$

LAZ027-028-250500-
CENTRAL LOUISIANA

CITY           SKY/WX    TMP DP  RH WIND       PRES   REMARKS
FORT POLK      CLEAR     77  74  90 CALM      30.01R
ALEXANDRIA INT CLEAR     76  74  93 CALM      29.98R
ALEXANDRIA     CLEAR     77  74  90 CALM      29.99R

$$

LAZ001-002-250500-
NORTHWEST LOUISIANA

CITY           SKY/WX    TMP DP  RH WIND       PRES   REMARKS
SHREVEPORT     CLEAR     77  73  87 CALM      30.00R
BARKSDALE AFB  CLEAR     76  73  90 CALM      30.00R
DTN SHREVEPORT CLEAR     76  72  87 CALM      30.00R

$$

LAZ014-016-250500-
NORTHEAST LOUISIANA

CITY           SKY/WX    TMP DP  RH WIND       PRES   REMARKS
MONROE         CLOUDY    79  73  82 NE6       30.02R
TALLULAH       CLEAR     78  73  84 NE7       30.01R

$$




USA.gov is the U.S. government's official web portal to all federal, state and local government web resources and services.